Year,Month,Day,Hour,Minute,Value (Times are PST for temperature in C)
2009,06,30,00,00,10.90
2009,06,30,00,01,10.90
2009,06,30,00,02,10.90
2009,06,30,00,03,10.90
2009,06,30,00,04,10.80
2009,06,30,00,05,10.80
2009,06,30,00,06,10.80
2009,06,30,00,07,10.80
2009,06,30,00,08,10.80
2009,06,30,00,09,10.70
2009,06,30,00,10,10.70
2009,06,30,00,11,10.70
2009,06,30,00,12,10.70
2009,06,30,00,13,10.70
2009,06,30,00,14,10.60
2009,06,30,00,15,10.60
2009,06,30,00,16,10.60
2009,06,30,00,17,10.60
2009,06,30,00,18,10.60
2009,06,30,00,19,10.60
2009,06,30,00,20,10.50
2009,06,30,00,21,10.40
2009,06,30,00,22,10.40
2009,06,30,00,23,10.40
2009,06,30,00,24,10.40
2009,06,30,00,25,10.30
2009,06,30,00,26,10.30
2009,06,30,00,27,10.30
2009,06,30,00,28,10.20
2009,06,30,00,29,10.20
2009,06,30,00,30,10.20
2009,06,30,00,31,10.10
2009,06,30,00,32,10.10
2009,06,30,00,33,10.10
2009,06,30,00,34,10.10
2009,06,30,00,35,10.10
2009,06,30,00,36,10.10
2009,06,30,00,37,9.90
2009,06,30,00,38,9.90
2009,06,30,00,39,9.90
2009,06,30,00,40,9.90
2009,06,30,00,41,9.90
2009,06,30,00,42,9.90
2009,06,30,00,43,9.80
2009,06,30,00,44,9.80
2009,06,30,00,45,9.80
2009,06,30,00,46,9.80
2009,06,30,00,47,9.80
2009,06,30,00,48,9.80
2009,06,30,00,49,9.70
2009,06,30,00,50,9.70
2009,06,30,00,51,9.70
2009,06,30,00,52,9.70
2009,06,30,00,53,9.70
2009,06,30,00,54,9.70
2009,06,30,00,55,9.70
2009,06,30,00,56,9.70
2009,06,30,00,57,9.70
2009,06,30,00,58,9.70
2009,06,30,00,59,9.70
2009,06,30,01,00,9.70
2009,06,30,01,01,9.70
2009,06,30,01,02,9.70
2009,06,30,01,03,9.60
2009,06,30,01,04,9.60
2009,06,30,01,05,9.60
2009,06,30,01,06,9.60
2009,06,30,01,07,9.60
2009,06,30,01,08,9.60
2009,06,30,01,09,9.50
2009,06,30,01,10,9.50
2009,06,30,01,11,9.50
2009,06,30,01,12,9.50
2009,06,30,01,13,9.50
2009,06,30,01,14,9.50
2009,06,30,01,15,9.40
2009,06,30,01,16,9.40
2009,06,30,01,17,9.40
2009,06,30,01,18,9.30
2009,06,30,01,19,9.30
2009,06,30,01,20,9.20
2009,06,30,01,21,9.20
2009,06,30,01,22,9.20
2009,06,30,01,23,9.20
2009,06,30,01,24,9.20
2009,06,30,01,25,9.10
2009,06,30,01,26,9.10
2009,06,30,01,27,9.10
2009,06,30,01,28,9.10
2009,06,30,01,29,9.10
2009,06,30,01,30,9.10
2009,06,30,01,31,9.10
2009,06,30,01,32,9.10
2009,06,30,01,33,9.10
2009,06,30,01,34,9.10
2009,06,30,01,35,9.10
2009,06,30,01,36,9.10
2009,06,30,01,37,9.10
2009,06,30,01,38,9.10
2009,06,30,01,39,9.10
2009,06,30,01,40,9.10
2009,06,30,01,41,9.10
2009,06,30,01,42,9.10
2009,06,30,01,43,9.10
2009,06,30,01,44,9.10
2009,06,30,01,45,9.10
2009,06,30,01,46,9.10
2009,06,30,01,47,9.10
2009,06,30,01,48,9.10
2009,06,30,01,49,9.20
2009,06,30,01,50,9.20
2009,06,30,01,51,9.20
2009,06,30,01,52,9.20
2009,06,30,01,53,9.20
2009,06,30,01,54,9.20
2009,06,30,01,55,9.20
2009,06,30,01,56,9.20
2009,06,30,01,57,9.20
2009,06,30,01,58,9.20
2009,06,30,01,59,9.20
2009,06,30,02,00,9.20
2009,06,30,02,01,9.20
2009,06,30,02,02,9.20
2009,06,30,02,03,9.20
2009,06,30,02,04,9.20
2009,06,30,02,05,9.20
2009,06,30,02,06,9.20
2009,06,30,02,07,9.10
2009,06,30,02,08,9.10
2009,06,30,02,09,9.10
2009,06,30,02,10,9.10
2009,06,30,02,11,9.10
2009,06,30,02,12,9.10
2009,06,30,02,13,9.00
2009,06,30,02,14,9.00
2009,06,30,02,15,9.00
2009,06,30,02,16,8.90
2009,06,30,02,17,8.80
2009,06,30,02,18,8.80
2009,06,30,02,19,8.70
2009,06,30,02,20,8.70
2009,06,30,02,21,8.70
2009,06,30,02,22,8.70
2009,06,30,02,23,8.70
2009,06,30,02,24,8.60
2009,06,30,02,25,8.60
2009,06,30,02,26,8.60
2009,06,30,02,27,8.50
2009,06,30,02,28,8.50
2009,06,30,02,29,8.50
2009,06,30,02,30,8.50
2009,06,30,02,31,8.50
2009,06,30,02,32,8.40
2009,06,30,02,33,8.40
2009,06,30,02,34,8.40
2009,06,30,02,35,8.40
2009,06,30,02,36,8.40
2009,06,30,02,37,8.40
2009,06,30,02,38,8.40
2009,06,30,02,39,8.40
2009,06,30,02,40,8.30
2009,06,30,02,41,8.30
2009,06,30,02,42,8.30
2009,06,30,02,43,8.30
2009,06,30,02,44,8.30
2009,06,30,02,45,8.30
2009,06,30,02,46,8.30
2009,06,30,02,47,8.30
2009,06,30,02,48,8.30
2009,06,30,02,49,8.20
2009,06,30,02,50,8.20
2009,06,30,02,51,8.20
2009,06,30,02,52,8.20
2009,06,30,02,53,8.20
2009,06,30,02,54,8.10
2009,06,30,02,55,8.10
2009,06,30,02,56,8.00
2009,06,30,02,57,8.00
2009,06,30,02,58,8.00
2009,06,30,02,59,8.00
2009,06,30,03,00,8.00
2009,06,30,03,01,7.90
2009,06,30,03,02,7.90
2009,06,30,03,03,7.90
2009,06,30,03,04,7.90
2009,06,30,03,05,7.90
2009,06,30,03,06,7.80
2009,06,30,03,07,7.80
2009,06,30,03,08,7.80
2009,06,30,03,09,7.80
2009,06,30,03,10,7.80
2009,06,30,03,11,7.80
2009,06,30,03,12,7.80
2009,06,30,03,13,7.80
2009,06,30,03,14,7.80
2009,06,30,03,15,7.70
2009,06,30,03,16,7.70
2009,06,30,03,17,7.70
2009,06,30,03,18,7.70
2009,06,30,03,19,7.70
2009,06,30,03,20,7.70
2009,06,30,03,21,7.70
2009,06,30,03,22,7.70
2009,06,30,03,23,7.70
2009,06,30,03,24,7.70
2009,06,30,03,25,7.70
2009,06,30,03,26,7.60
2009,06,30,03,27,7.60
2009,06,30,03,28,7.70
2009,06,30,03,29,7.70
2009,06,30,03,30,7.70
2009,06,30,03,31,7.70
2009,06,30,03,32,7.70
2009,06,30,03,33,7.70
2009,06,30,03,34,7.60
2009,06,30,03,35,7.60
2009,06,30,03,36,7.60
2009,06,30,03,37,7.50
2009,06,30,03,38,7.50
2009,06,30,03,39,7.40
2009,06,30,03,40,7.40
2009,06,30,03,41,7.30
2009,06,30,03,42,7.30
2009,06,30,03,43,7.30
2009,06,30,03,44,7.30
2009,06,30,03,45,7.30
2009,06,30,03,46,7.30
2009,06,30,03,47,7.30
2009,06,30,03,48,7.30
2009,06,30,03,49,7.30
2009,06,30,03,50,7.30
2009,06,30,03,51,7.30
2009,06,30,03,52,7.30
2009,06,30,03,53,7.30
2009,06,30,03,54,7.30
2009,06,30,03,55,7.30
2009,06,30,03,56,7.30
2009,06,30,03,57,7.30
2009,06,30,03,58,7.30
2009,06,30,03,59,7.30
2009,06,30,04,00,7.30
2009,06,30,04,01,7.30
2009,06,30,04,02,7.30
2009,06,30,04,03,7.30
2009,06,30,04,04,7.30
2009,06,30,04,05,7.40
2009,06,30,04,06,7.40
2009,06,30,04,07,7.40
2009,06,30,04,08,7.40
2009,06,30,04,09,7.40
2009,06,30,04,10,7.40
2009,06,30,04,11,7.40
2009,06,30,04,12,7.30
2009,06,30,04,13,7.30
2009,06,30,04,14,7.30
2009,06,30,04,15,7.30
2009,06,30,04,16,7.30
2009,06,30,04,17,7.30
2009,06,30,04,18,7.30
2009,06,30,04,19,7.30
2009,06,30,04,20,7.20
2009,06,30,04,21,7.20
2009,06,30,04,22,7.20
2009,06,30,04,23,7.10
2009,06,30,04,24,7.10
2009,06,30,04,25,7.00
2009,06,30,04,26,7.00
2009,06,30,04,27,7.00
2009,06,30,04,28,7.00
2009,06,30,04,29,7.00
2009,06,30,04,30,6.90
2009,06,30,04,31,6.90
2009,06,30,04,32,6.90
2009,06,30,04,33,6.90
2009,06,30,04,34,6.90
2009,06,30,04,35,6.90
2009,06,30,04,36,6.80
2009,06,30,04,37,6.80
2009,06,30,04,38,6.80
2009,06,30,04,39,6.80
2009,06,30,04,40,6.80
2009,06,30,04,41,6.80
2009,06,30,04,42,6.80
2009,06,30,04,43,6.80
2009,06,30,04,44,6.80
2009,06,30,04,45,6.80
2009,06,30,04,46,6.80
2009,06,30,04,47,6.80
2009,06,30,04,48,6.80
2009,06,30,04,49,6.90
2009,06,30,04,50,6.90
2009,06,30,04,51,7.00
2009,06,30,04,52,7.00
2009,06,30,04,53,7.00
2009,06,30,04,54,7.10
2009,06,30,04,55,7.10
2009,06,30,04,56,7.10
2009,06,30,04,57,7.10
2009,06,30,04,58,7.10
2009,06,30,04,59,7.10
2009,06,30,05,00,7.10
2009,06,30,05,01,7.10
2009,06,30,05,02,7.10
2009,06,30,05,03,7.10
2009,06,30,05,04,7.10
2009,06,30,05,05,7.10
2009,06,30,05,06,7.10
2009,06,30,05,07,7.00
2009,06,30,05,08,7.00
2009,06,30,05,09,7.00
2009,06,30,05,10,7.00
2009,06,30,05,11,7.00
2009,06,30,05,12,7.00
2009,06,30,05,13,7.00
2009,06,30,05,14,7.00
2009,06,30,05,15,7.00
2009,06,30,05,16,7.00
2009,06,30,05,17,7.00
2009,06,30,05,18,7.00
2009,06,30,05,19,7.00
2009,06,30,05,20,7.00
2009,06,30,05,21,7.00
2009,06,30,05,22,7.00
2009,06,30,05,23,7.00
2009,06,30,05,24,7.00
2009,06,30,05,25,7.00
2009,06,30,05,26,7.00
2009,06,30,05,27,7.00
2009,06,30,05,28,7.00
2009,06,30,05,29,6.90
2009,06,30,05,30,6.90
2009,06,30,05,31,6.90
2009,06,30,05,32,6.90
2009,06,30,05,33,6.80
2009,06,30,05,34,6.80
2009,06,30,05,35,6.80
2009,06,30,05,36,6.80
2009,06,30,05,37,6.80
2009,06,30,05,38,6.80
2009,06,30,05,39,6.80
2009,06,30,05,40,6.80
2009,06,30,05,41,6.80
2009,06,30,05,42,6.80
2009,06,30,05,43,6.80
2009,06,30,05,44,6.90
2009,06,30,05,45,6.90
2009,06,30,05,46,6.90
2009,06,30,05,47,6.90
2009,06,30,05,48,6.90
2009,06,30,05,49,6.90
2009,06,30,05,50,7.00
2009,06,30,05,51,7.00
2009,06,30,05,52,7.00
2009,06,30,05,53,7.00
2009,06,30,05,54,7.10
2009,06,30,05,55,7.10
2009,06,30,05,56,7.10
2009,06,30,05,57,7.10
2009,06,30,05,58,7.10
2009,06,30,05,59,7.20
2009,06,30,06,00,7.20
2009,06,30,06,01,7.20
2009,06,30,06,02,7.20
2009,06,30,06,03,7.20
2009,06,30,06,04,7.20
2009,06,30,06,05,7.30
2009,06,30,06,06,7.30
2009,06,30,06,07,7.30
2009,06,30,06,08,7.30
2009,06,30,06,09,7.40
2009,06,30,06,10,7.50
2009,06,30,06,11,7.50
2009,06,30,06,12,7.60
2009,06,30,06,13,7.60
2009,06,30,06,14,7.60
2009,06,30,06,15,7.70
2009,06,30,06,16,7.70
2009,06,30,06,17,7.70
2009,06,30,06,18,7.70
2009,06,30,06,19,7.70
2009,06,30,06,20,7.70
2009,06,30,06,21,7.70
2009,06,30,06,22,7.70
2009,06,30,06,23,7.80
2009,06,30,06,24,7.80
2009,06,30,06,25,7.80
2009,06,30,06,26,7.80
2009,06,30,06,27,7.90
2009,06,30,06,28,7.90
2009,06,30,06,29,8.00
2009,06,30,06,30,8.00
2009,06,30,06,31,8.00
2009,06,30,06,32,8.10
2009,06,30,06,33,8.20
2009,06,30,06,34,8.20
2009,06,30,06,35,8.20
2009,06,30,06,36,8.20
2009,06,30,06,37,8.20
2009,06,30,06,38,8.30
2009,06,30,06,39,8.30
2009,06,30,06,40,8.30
2009,06,30,06,41,8.40
2009,06,30,06,42,8.40
2009,06,30,06,43,8.50
2009,06,30,06,44,8.50
2009,06,30,06,45,8.60
2009,06,30,06,46,8.60
2009,06,30,06,47,8.70
2009,06,30,06,48,8.70
2009,06,30,06,49,8.80
2009,06,30,06,50,8.80
2009,06,30,06,51,8.90
2009,06,30,06,52,9.00
2009,06,30,06,53,9.10
2009,06,30,06,54,9.20
2009,06,30,06,55,9.30
2009,06,30,06,56,9.40
2009,06,30,06,57,9.50
2009,06,30,06,58,9.60
2009,06,30,06,59,9.70
2009,06,30,07,00,9.80
2009,06,30,07,01,9.90
2009,06,30,07,02,9.90
2009,06,30,07,03,10.00
2009,06,30,07,04,10.10
2009,06,30,07,05,10.10
2009,06,30,07,06,10.20
2009,06,30,07,07,10.30
2009,06,30,07,08,10.30
2009,06,30,07,09,10.40
2009,06,30,07,10,10.50
2009,06,30,07,11,10.60
2009,06,30,07,12,10.60
2009,06,30,07,13,10.70
2009,06,30,07,14,10.80
2009,06,30,07,15,10.80
2009,06,30,07,16,10.90
2009,06,30,07,17,10.90
2009,06,30,07,18,11.10
2009,06,30,07,19,11.10
2009,06,30,07,20,11.20
2009,06,30,07,21,11.20
2009,06,30,07,22,11.30
2009,06,30,07,23,11.40
2009,06,30,07,24,11.60
2009,06,30,07,25,11.70
2009,06,30,07,26,11.80
2009,06,30,07,27,11.80
2009,06,30,07,28,11.90
2009,06,30,07,29,12.00
2009,06,30,07,30,12.10
2009,06,30,07,31,12.20
2009,06,30,07,32,12.20
2009,06,30,07,33,12.30
2009,06,30,07,34,12.30
2009,06,30,07,35,12.40
2009,06,30,07,36,12.40
2009,06,30,07,37,12.50
2009,06,30,07,38,12.50
2009,06,30,07,39,12.60
2009,06,30,07,40,12.70
2009,06,30,07,41,12.70
2009,06,30,07,42,12.80
2009,06,30,07,43,12.80
2009,06,30,07,44,12.80
2009,06,30,07,45,12.90
2009,06,30,07,46,12.90
2009,06,30,07,47,13.00
2009,06,30,07,48,13.00
2009,06,30,07,49,13.10
2009,06,30,07,50,13.10
2009,06,30,07,51,13.20
2009,06,30,07,52,13.30
2009,06,30,07,53,13.40
2009,06,30,07,54,13.60
2009,06,30,07,55,13.70
2009,06,30,07,56,13.80
2009,06,30,07,57,13.80
2009,06,30,07,58,13.90
2009,06,30,07,59,14.00
2009,06,30,08,00,14.10
2009,06,30,08,01,14.10
2009,06,30,08,02,14.10
2009,06,30,08,03,14.10
2009,06,30,08,04,14.00
2009,06,30,08,05,13.90
2009,06,30,08,06,13.90
2009,06,30,08,07,13.90
2009,06,30,08,08,13.80
2009,06,30,08,09,13.80
2009,06,30,08,10,13.90
2009,06,30,08,11,13.90
2009,06,30,08,12,14.00
2009,06,30,08,13,14.00
2009,06,30,08,14,14.10
2009,06,30,08,15,14.20
2009,06,30,08,16,14.30
2009,06,30,08,17,14.40
2009,06,30,08,18,14.50
2009,06,30,08,19,14.60
2009,06,30,08,20,14.60
2009,06,30,08,21,14.70
2009,06,30,08,22,14.70
2009,06,30,08,23,14.80
2009,06,30,08,24,14.80
2009,06,30,08,25,14.90
2009,06,30,08,26,14.90
2009,06,30,08,27,15.00
2009,06,30,08,28,15.00
2009,06,30,08,29,15.10
2009,06,30,08,30,15.20
2009,06,30,08,31,15.20
2009,06,30,08,32,15.30
2009,06,30,08,33,15.30
2009,06,30,08,34,15.40
2009,06,30,08,35,15.50
2009,06,30,08,36,15.60
2009,06,30,08,37,15.60
2009,06,30,08,38,15.70
2009,06,30,08,39,15.70
2009,06,30,08,40,15.80
2009,06,30,08,41,15.70
2009,06,30,08,42,15.60
2009,06,30,08,43,15.60
2009,06,30,08,44,15.50
2009,06,30,08,45,15.40
2009,06,30,08,46,15.40
2009,06,30,08,47,15.40
2009,06,30,08,48,15.50
2009,06,30,08,49,15.60
2009,06,30,08,50,15.60
2009,06,30,08,51,15.60
2009,06,30,08,52,15.50
2009,06,30,08,53,15.40
2009,06,30,08,54,15.40
2009,06,30,08,55,15.50
2009,06,30,08,56,15.50
2009,06,30,08,57,15.60
2009,06,30,08,58,15.50
2009,06,30,08,59,15.40
2009,06,30,09,00,15.30
2009,06,30,09,01,15.40
2009,06,30,09,02,15.50
2009,06,30,09,03,15.50
2009,06,30,09,04,15.50
2009,06,30,09,05,15.40
2009,06,30,09,06,15.40
2009,06,30,09,07,15.30
2009,06,30,09,08,15.20
2009,06,30,09,09,15.20
2009,06,30,09,10,15.30
2009,06,30,09,11,15.30
2009,06,30,09,12,15.30
2009,06,30,09,13,15.30
2009,06,30,09,14,15.30
2009,06,30,09,15,15.30
2009,06,30,09,16,15.30
2009,06,30,09,17,15.20
2009,06,30,09,18,15.20
2009,06,30,09,19,15.20
2009,06,30,09,20,15.30
2009,06,30,09,21,15.30
2009,06,30,09,22,15.30
2009,06,30,09,23,15.30
2009,06,30,09,24,15.30
2009,06,30,09,25,15.30
2009,06,30,09,26,15.30
2009,06,30,09,27,15.30
2009,06,30,09,28,15.30
2009,06,30,09,29,15.30
2009,06,30,09,30,15.30
2009,06,30,09,31,15.30
2009,06,30,09,32,15.30
2009,06,30,09,33,15.30
2009,06,30,09,34,15.30
2009,06,30,09,35,15.30
2009,06,30,09,36,15.30
2009,06,30,09,37,15.30
2009,06,30,09,38,15.30
2009,06,30,09,39,15.30
2009,06,30,09,40,15.30
2009,06,30,09,41,15.30
2009,06,30,09,42,15.30
2009,06,30,09,43,15.20
2009,06,30,09,44,15.20
2009,06,30,09,45,15.30
2009,06,30,09,46,15.20
2009,06,30,09,47,15.20
2009,06,30,09,48,15.10
2009,06,30,09,49,15.10
2009,06,30,09,50,15.20
2009,06,30,09,51,15.30
2009,06,30,09,52,15.40
2009,06,30,09,53,15.40
2009,06,30,09,54,15.40
2009,06,30,09,55,15.40
2009,06,30,09,56,15.40
2009,06,30,09,57,15.20
2009,06,30,09,58,15.10
2009,06,30,09,59,15.10
2009,06,30,10,00,15.00
2009,06,30,10,01,15.00
2009,06,30,10,02,15.00
2009,06,30,10,03,15.00
2009,06,30,10,04,15.00
2009,06,30,10,05,14.80
2009,06,30,10,06,14.80
2009,06,30,10,07,14.80
2009,06,30,10,08,14.80
2009,06,30,10,09,14.80
2009,06,30,10,10,14.80
2009,06,30,10,11,14.80
2009,06,30,10,12,14.80
2009,06,30,10,13,14.70
2009,06,30,10,14,14.70
2009,06,30,10,15,14.70
2009,06,30,10,16,14.60
2009,06,30,10,17,14.80
2009,06,30,10,18,14.70
2009,06,30,10,19,14.70
2009,06,30,10,20,14.80
2009,06,30,10,21,14.70
2009,06,30,10,22,14.70
2009,06,30,10,23,14.70
2009,06,30,10,24,14.70
2009,06,30,10,25,14.70
2009,06,30,10,26,14.60
2009,06,30,10,27,14.60
2009,06,30,10,28,14.60
2009,06,30,10,29,14.50
2009,06,30,10,30,14.50
2009,06,30,10,31,14.50
2009,06,30,10,32,14.40
2009,06,30,10,33,14.20
2009,06,30,10,34,14.20
2009,06,30,10,35,14.20
2009,06,30,10,36,14.10
2009,06,30,10,37,14.00
2009,06,30,10,38,14.10
2009,06,30,10,39,14.20
2009,06,30,10,40,14.20
2009,06,30,10,41,14.20
2009,06,30,10,42,14.30
2009,06,30,10,43,14.40
2009,06,30,10,44,14.40
2009,06,30,10,45,14.40
2009,06,30,10,46,14.30
2009,06,30,10,47,14.30
2009,06,30,10,48,14.20
2009,06,30,10,49,14.20
2009,06,30,10,50,14.20
2009,06,30,10,51,14.20
2009,06,30,10,52,14.20
2009,06,30,10,53,14.40
2009,06,30,10,54,14.40
2009,06,30,10,55,14.60
2009,06,30,10,56,14.60
2009,06,30,10,57,14.70
2009,06,30,10,58,14.70
2009,06,30,10,59,14.80
2009,06,30,11,00,14.70
2009,06,30,11,01,14.70
2009,06,30,11,02,14.80
2009,06,30,11,03,14.80
2009,06,30,11,04,14.80
2009,06,30,11,05,14.80
2009,06,30,11,06,14.80
2009,06,30,11,07,14.80
2009,06,30,11,08,14.80
2009,06,30,11,09,14.80
2009,06,30,11,10,14.80
2009,06,30,11,11,14.80
2009,06,30,11,12,14.80
2009,06,30,11,13,14.80
2009,06,30,11,14,14.90
2009,06,30,11,15,14.90
2009,06,30,11,16,14.80
2009,06,30,11,17,14.70
2009,06,30,11,18,14.80
2009,06,30,11,19,14.90
2009,06,30,11,20,14.90
2009,06,30,11,21,15.00
2009,06,30,11,22,15.00
2009,06,30,11,23,15.00
2009,06,30,11,24,15.00
2009,06,30,11,25,14.90
2009,06,30,11,26,14.90
2009,06,30,11,27,14.80
2009,06,30,11,28,14.60
2009,06,30,11,29,14.60
2009,06,30,11,30,14.60
2009,06,30,11,31,14.80
2009,06,30,11,32,14.90
2009,06,30,11,33,15.00
2009,06,30,11,34,15.00
2009,06,30,11,35,15.10
2009,06,30,11,36,15.10
2009,06,30,11,37,15.10
2009,06,30,11,38,15.20
2009,06,30,11,39,15.30
2009,06,30,11,40,15.40
2009,06,30,11,41,15.40
2009,06,30,11,42,15.40
2009,06,30,11,43,15.30
2009,06,30,11,44,15.20
2009,06,30,11,45,15.20
2009,06,30,11,46,15.20
2009,06,30,11,47,15.10
2009,06,30,11,48,15.10
2009,06,30,11,49,15.10
2009,06,30,11,50,15.00
2009,06,30,11,51,15.10
2009,06,30,11,52,15.10
2009,06,30,11,53,15.10
2009,06,30,11,54,15.10
2009,06,30,11,55,15.10
2009,06,30,11,56,15.30
2009,06,30,11,57,15.30
2009,06,30,11,58,15.30
2009,06,30,11,59,15.20
2009,06,30,12,00,15.10
2009,06,30,12,01,15.00
2009,06,30,12,02,15.00
2009,06,30,12,03,15.10
2009,06,30,12,04,15.20
2009,06,30,12,05,15.30
2009,06,30,12,06,15.30
2009,06,30,12,07,15.40
2009,06,30,12,08,15.50
2009,06,30,12,09,15.60
2009,06,30,12,10,15.60
2009,06,30,12,11,15.70
2009,06,30,12,12,15.70
2009,06,30,12,13,15.70
2009,06,30,12,14,15.80
2009,06,30,12,15,15.80
2009,06,30,12,16,15.80
2009,06,30,12,17,15.70
2009,06,30,12,18,15.70
2009,06,30,12,19,15.70
2009,06,30,12,20,15.60
2009,06,30,12,21,15.50
2009,06,30,12,22,15.50
2009,06,30,12,23,15.60
2009,06,30,12,24,15.70
2009,06,30,12,25,15.80
2009,06,30,12,26,15.70
2009,06,30,12,27,15.50
2009,06,30,12,28,15.40
2009,06,30,12,29,15.40
2009,06,30,12,30,15.50
2009,06,30,12,31,15.60
2009,06,30,12,32,15.50
2009,06,30,12,33,15.60
2009,06,30,12,34,15.80
2009,06,30,12,35,15.90
2009,06,30,12,36,15.90
2009,06,30,12,37,15.80
2009,06,30,12,38,15.80
2009,06,30,12,39,15.80
2009,06,30,12,40,15.90
2009,06,30,12,41,15.90
2009,06,30,12,42,15.90
2009,06,30,12,43,16.10
2009,06,30,12,44,16.10
2009,06,30,12,45,16.10
2009,06,30,12,46,16.00
2009,06,30,12,47,16.10
2009,06,30,12,48,16.10
2009,06,30,12,49,16.20
2009,06,30,12,50,16.30
2009,06,30,12,51,16.30
2009,06,30,12,52,16.30
2009,06,30,12,53,16.30
2009,06,30,12,54,16.30
2009,06,30,12,55,16.20
2009,06,30,12,56,16.20
2009,06,30,12,57,16.10
2009,06,30,12,58,16.20
2009,06,30,12,59,16.30
2009,06,30,13,00,16.30
2009,06,30,13,01,16.20
2009,06,30,13,02,16.10
2009,06,30,13,03,16.10
2009,06,30,13,04,16.10
2009,06,30,13,05,16.10
2009,06,30,13,06,16.30
2009,06,30,13,07,16.40
2009,06,30,13,08,16.50
2009,06,30,13,09,16.60
2009,06,30,13,10,16.60
2009,06,30,13,11,16.40
2009,06,30,13,12,16.40
2009,06,30,13,13,16.30
2009,06,30,13,14,16.30
2009,06,30,13,15,16.40
2009,06,30,13,16,16.40
2009,06,30,13,17,16.40
2009,06,30,13,18,16.40
2009,06,30,13,19,16.40
2009,06,30,13,20,16.30
2009,06,30,13,21,16.30
2009,06,30,13,22,16.20
2009,06,30,13,23,16.20
2009,06,30,13,24,16.20
2009,06,30,13,25,16.10
2009,06,30,13,26,16.00
2009,06,30,13,27,15.90
2009,06,30,13,28,15.80
2009,06,30,13,29,15.70
2009,06,30,13,30,15.70
2009,06,30,13,31,15.70
2009,06,30,13,32,15.80
2009,06,30,13,33,15.80
2009,06,30,13,34,15.80
2009,06,30,13,35,15.80
2009,06,30,13,36,15.90
2009,06,30,13,37,16.10
2009,06,30,13,38,16.20
2009,06,30,13,39,16.40
2009,06,30,13,40,16.40
2009,06,30,13,41,16.50
2009,06,30,13,42,16.60
2009,06,30,13,43,16.60
2009,06,30,13,44,16.70
2009,06,30,13,45,16.80
2009,06,30,13,46,16.80
2009,06,30,13,47,16.80
2009,06,30,13,48,17.00
2009,06,30,13,49,17.10
2009,06,30,13,50,17.20
2009,06,30,13,51,17.10
2009,06,30,13,52,17.00
2009,06,30,13,53,16.90
2009,06,30,13,54,16.80
2009,06,30,13,55,16.80
2009,06,30,13,56,16.80
2009,06,30,13,57,16.70
2009,06,30,13,58,16.80
2009,06,30,13,59,16.90
2009,06,30,14,00,17.10
2009,06,30,14,01,17.20
2009,06,30,14,02,17.30
2009,06,30,14,03,17.30
2009,06,30,14,04,17.20
2009,06,30,14,05,17.10
2009,06,30,14,06,17.20
2009,06,30,14,07,17.40
2009,06,30,14,08,17.50
2009,06,30,14,09,17.70
2009,06,30,14,10,17.60
2009,06,30,14,11,17.60
2009,06,30,14,12,17.60
2009,06,30,14,13,17.50
2009,06,30,14,14,17.40
2009,06,30,14,15,17.30
2009,06,30,14,16,17.30
2009,06,30,14,17,17.20
2009,06,30,14,18,17.30
2009,06,30,14,19,17.30
2009,06,30,14,20,17.40
2009,06,30,14,21,17.60
2009,06,30,14,22,17.70
2009,06,30,14,23,17.70
2009,06,30,14,24,17.90
2009,06,30,14,25,17.90
2009,06,30,14,26,18.10
2009,06,30,14,27,18.20
2009,06,30,14,28,18.00
2009,06,30,14,29,17.80
2009,06,30,14,30,17.60
2009,06,30,14,31,17.60
2009,06,30,14,32,17.50
2009,06,30,14,33,17.50
2009,06,30,14,34,17.50
2009,06,30,14,35,17.50
2009,06,30,14,36,17.50
2009,06,30,14,37,17.50
2009,06,30,14,38,17.40
2009,06,30,14,39,17.30
2009,06,30,14,40,17.40
2009,06,30,14,41,17.50
2009,06,30,14,42,17.70
2009,06,30,14,43,17.70
2009,06,30,14,44,17.60
2009,06,30,14,45,17.60
2009,06,30,14,46,17.60
2009,06,30,14,47,17.70
2009,06,30,14,48,17.60
2009,06,30,14,49,17.60
2009,06,30,14,50,17.60
2009,06,30,14,51,17.50
2009,06,30,14,52,17.40
2009,06,30,14,53,17.40
2009,06,30,14,54,17.40
2009,06,30,14,55,17.50
2009,06,30,14,56,17.50
2009,06,30,14,57,17.50
2009,06,30,14,58,17.50
2009,06,30,14,59,17.40
2009,06,30,15,00,17.40
2009,06,30,15,01,17.50
2009,06,30,15,02,17.60
2009,06,30,15,03,17.60
2009,06,30,15,04,17.60
2009,06,30,15,05,17.70
2009,06,30,15,06,17.70
2009,06,30,15,07,17.50
2009,06,30,15,08,17.50
2009,06,30,15,09,17.50
2009,06,30,15,10,17.50
2009,06,30,15,11,17.60
2009,06,30,15,12,17.70
2009,06,30,15,13,17.60
2009,06,30,15,14,17.60
2009,06,30,15,15,17.70
2009,06,30,15,16,17.70
2009,06,30,15,17,17.80
2009,06,30,15,18,17.80
2009,06,30,15,19,17.70
2009,06,30,15,20,17.60
2009,06,30,15,21,17.60
2009,06,30,15,22,17.60
2009,06,30,15,23,17.80
2009,06,30,15,24,18.10
2009,06,30,15,25,18.30
2009,06,30,15,26,18.50
2009,06,30,15,27,18.70
2009,06,30,15,28,18.60
2009,06,30,15,29,18.60
2009,06,30,15,30,18.50
2009,06,30,15,31,18.40
2009,06,30,15,32,18.20
2009,06,30,15,33,18.10
2009,06,30,15,34,18.10
2009,06,30,15,35,18.20
2009,06,30,15,36,18.20
2009,06,30,15,37,18.20
2009,06,30,15,38,18.20
2009,06,30,15,39,18.20
2009,06,30,15,40,18.20
2009,06,30,15,41,18.20
2009,06,30,15,42,18.20
2009,06,30,15,43,18.10
2009,06,30,15,44,18.10
2009,06,30,15,45,18.10
2009,06,30,15,46,18.10
2009,06,30,15,47,18.20
2009,06,30,15,48,18.20
2009,06,30,15,49,18.10
2009,06,30,15,50,18.10
2009,06,30,15,51,18.20
2009,06,30,15,52,18.20
2009,06,30,15,53,18.20
2009,06,30,15,54,18.20
2009,06,30,15,55,18.20
2009,06,30,15,56,18.20
2009,06,30,15,57,18.10
2009,06,30,15,58,18.10
2009,06,30,15,59,18.10
2009,06,30,16,00,18.20
2009,06,30,16,01,18.20
2009,06,30,16,02,18.20
2009,06,30,16,03,18.20
2009,06,30,16,04,18.20
2009,06,30,16,05,18.10
2009,06,30,16,06,18.00
2009,06,30,16,07,18.00
2009,06,30,16,08,18.20
2009,06,30,16,09,18.20
2009,06,30,16,10,18.20
2009,06,30,16,11,18.40
2009,06,30,16,12,18.50
2009,06,30,16,13,18.50
2009,06,30,16,14,18.60
2009,06,30,16,15,18.60
2009,06,30,16,16,18.60
2009,06,30,16,17,18.60
2009,06,30,16,18,18.60
2009,06,30,16,19,18.60
2009,06,30,16,20,18.60
2009,06,30,16,21,18.50
2009,06,30,16,22,18.60
2009,06,30,16,23,18.60
2009,06,30,16,24,18.70
2009,06,30,16,25,18.80
2009,06,30,16,26,18.70
2009,06,30,16,27,18.70
2009,06,30,16,28,18.60
2009,06,30,16,29,18.50
2009,06,30,16,30,18.50
2009,06,30,16,31,18.40
2009,06,30,16,32,18.30
2009,06,30,16,33,18.30
2009,06,30,16,34,18.20
2009,06,30,16,35,18.20
2009,06,30,16,36,18.10
2009,06,30,16,37,18.20
2009,06,30,16,38,18.20
2009,06,30,16,39,18.20
2009,06,30,16,40,18.20
2009,06,30,16,41,18.30
2009,06,30,16,42,18.30
2009,06,30,16,43,18.30
2009,06,30,16,44,18.30
2009,06,30,16,45,18.20
2009,06,30,16,46,18.30
2009,06,30,16,47,18.30
2009,06,30,16,48,18.30
2009,06,30,16,49,18.30
2009,06,30,16,50,18.30
2009,06,30,16,51,18.30
2009,06,30,16,52,18.30
2009,06,30,16,53,18.30
2009,06,30,16,54,18.30
2009,06,30,16,55,18.30
2009,06,30,16,56,18.40
2009,06,30,16,57,18.50
2009,06,30,16,58,18.50
2009,06,30,16,59,18.40
2009,06,30,17,00,18.40
2009,06,30,17,01,18.50
2009,06,30,17,02,18.60
2009,06,30,17,03,18.60
2009,06,30,17,04,18.50
2009,06,30,17,05,18.50
2009,06,30,17,06,18.50
2009,06,30,17,07,18.50
2009,06,30,17,08,18.50
2009,06,30,17,09,18.40
2009,06,30,17,10,18.40
2009,06,30,17,11,18.30
2009,06,30,17,12,18.20
2009,06,30,17,13,18.20
2009,06,30,17,14,18.20
2009,06,30,17,15,18.20
2009,06,30,17,16,18.30
2009,06,30,17,17,18.40
2009,06,30,17,18,18.50
2009,06,30,17,19,18.50
2009,06,30,17,20,18.50
2009,06,30,17,21,18.40
2009,06,30,17,22,18.30
2009,06,30,17,23,18.30
2009,06,30,17,24,18.30
2009,06,30,17,25,18.20
2009,06,30,17,26,18.20
2009,06,30,17,27,18.20
2009,06,30,17,28,18.20
2009,06,30,17,29,18.20
2009,06,30,17,30,18.20
2009,06,30,17,31,18.10
2009,06,30,17,32,18.10
2009,06,30,17,33,18.00
2009,06,30,17,34,18.10
2009,06,30,17,35,18.20
2009,06,30,17,36,18.20